Time,TemperatureF,DewpointF,PressureIn,WindDirection,WindDirectionDegrees,WindSpeedMPH,WindSpeedGustMPH,Humidity,HourlyPrecipIn,Conditions,Clouds,dailyrainin,SoftwareType,DateUTC
2013-03-13 00:00:00,45.7,40.8,30.20,SSE,157,0.0,0.0,83,0.00,,,0.00,WUHU21623XXSP,2013-03-13 07:00:00,
2013-03-13 00:05:00,45.7,40.8,30.21,SSE,157,0.0,0.0,83,0.00,,,0.00,WUHU21623XXSP,2013-03-13 07:05:00,
2013-03-13 00:10:00,45.5,40.7,30.21,SSE,157,0.0,0.0,83,0.00,,,0.00,WUHU21623XXSP,2013-03-13 07:10:00,
2013-03-13 00:15:00,45.3,40.5,30.21,SSE,157,0.0,0.0,83,0.00,,,0.00,WUHU21623XXSP,2013-03-13 07:15:00,
2013-03-13 00:20:00,45.3,40.5,30.20,SSE,157,0.0,0.0,83,0.00,,,0.00,WUHU21623XXSP,2013-03-13 07:20:00,
2013-03-13 00:25:00,45.3,40.8,30.20,SSE,157,0.0,0.0,84,0.00,,,0.00,WUHU21623XXSP,2013-03-13 07:25:00,
2013-03-13 00:30:00,45.5,41.0,30.20,SE,135,0.0,0.0,84,0.00,,,0.00,WUHU21623XXSP,2013-03-13 07:30:00,
2013-03-13 00:35:00,45.3,40.8,30.21,SE,135,0.0,0.0,84,0.00,,,0.00,WUHU21623XXSP,2013-03-13 07:35:00,
2013-03-13 00:40:00,45.3,40.8,30.21,SE,135,0.0,0.0,84,0.00,,,0.00,WUHU21623XXSP,2013-03-13 07:40:00,
2013-03-13 00:45:00,45.3,40.8,30.21,SE,135,0.0,0.0,84,0.00,,,0.00,WUHU21623XXSP,2013-03-13 07:45:00,
2013-03-13 00:50:00,45.1,40.6,30.21,SE,135,0.0,0.0,84,0.00,,,0.00,WUHU21623XXSP,2013-03-13 07:50:00,
2013-03-13 00:55:00,45.3,40.8,30.21,SE,135,0.0,0.0,84,0.00,,,0.00,WUHU21623XXSP,2013-03-13 07:55:00,
2013-03-13 01:00:00,45.3,40.8,30.21,SE,135,0.0,0.0,84,0.00,,,0.00,WUHU21623XXSP,2013-03-13 08:00:00,
2013-03-13 01:08:00,45.3,40.8,30.22,SE,135,0.0,0.0,84,0.00,,,0.00,WUHU21623XXSP,2013-03-13 08:08:00,
2013-03-13 01:13:00,45.3,40.8,30.21,SE,135,0.0,0.0,84,0.00,,,0.00,WUHU21623XXSP,2013-03-13 08:13:00,
2013-03-13 01:18:00,45.3,40.8,30.22,SE,135,0.0,0.0,84,0.00,,,0.00,WUHU21623XXSP,2013-03-13 08:18:00,
2013-03-13 01:23:00,45.3,41.1,30.21,SE,135,0.0,0.0,85,0.00,,,0.00,WUHU21623XXSP,2013-03-13 08:23:00,
2013-03-13 01:28:00,45.5,41.3,30.21,SE,135,0.0,0.0,85,0.00,,,0.00,WUHU21623XXSP,2013-03-13 08:28:00,
2013-03-13 01:33:00,45.5,41.3,30.21,SE,135,0.0,0.0,85,0.00,,,0.00,WUHU21623XXSP,2013-03-13 08:33:00,
2013-03-13 01:38:00,45.5,41.1,30.21,SE,135,0.0,0.0,85,0.00,,,0.00,WUHU21623XXSP,2013-03-13 08:38:00,
2013-03-13 01:43:00,45.5,41.3,30.21,North,0,0.0,0.0,85,0.00,,,0.00,WUHU21623XXSP,2013-03-13 08:43:00,
2013-03-13 01:48:00,45.3,41.1,30.22,North,0,0.0,0.0,85,0.00,,,0.00,WUHU21623XXSP,2013-03-13 08:48:00,
2013-03-13 01:53:00,45.3,41.1,30.22,North,0,0.0,0.0,85,0.00,,,0.00,WUHU21623XXSP,2013-03-13 08:53:00,
2013-03-13 01:58:00,45.3,41.1,30.22,North,0,0.0,0.0,85,0.00,,,0.00,WUHU21623XXSP,2013-03-13 08:58:00,
2013-03-13 02:03:00,45.3,41.1,30.21,North,0,0.0,0.0,85,0.00,,,0.00,WUHU21623XXSP,2013-03-13 09:03:00,
2013-03-13 02:08:00,45.1,40.9,30.21,North,0,0.0,0.0,85,0.00,,,0.00,WUHU21623XXSP,2013-03-13 09:08:00,
2013-03-13 02:13:00,45.1,40.9,30.21,North,0,0.0,0.0,85,0.00,,,0.00,WUHU21623XXSP,2013-03-13 09:13:00,
2013-03-13 02:18:00,45.1,40.9,30.20,North,0,0.0,0.0,85,0.00,,,0.00,WUHU21623XXSP,2013-03-13 09:18:00,
2013-03-13 02:23:00,45.1,40.9,30.21,North,0,0.0,0.0,85,0.00,,,0.00,WUHU21623XXSP,2013-03-13 09:23:00,
2013-03-13 02:28:00,45.1,40.9,30.22,North,0,0.0,0.0,85,0.00,,,0.00,WUHU21623XXSP,2013-03-13 09:28:00,
2013-03-13 02:33:00,45.1,40.9,30.21,North,0,0.0,0.0,85,0.00,,,0.00,WUHU21623XXSP,2013-03-13 09:33:00,
2013-03-13 02:38:00,45.1,40.9,30.22,North,0,0.0,0.0,85,0.00,,,0.00,WUHU21623XXSP,2013-03-13 09:38:00,
2013-03-13 02:43:00,45.1,40.9,30.22,North,0,0.0,0.0,85,0.00,,,0.00,WUHU21623XXSP,2013-03-13 09:43:00,
2013-03-13 02:48:00,45.1,40.9,30.22,North,0,0.0,0.0,85,0.00,,,0.00,WUHU21623XXSP,2013-03-13 09:48:00,
2013-03-13 02:53:00,45.1,40.9,30.23,North,0,0.0,0.0,85,0.00,,,0.00,WUHU21623XXSP,2013-03-13 09:53:00,
2013-03-13 02:58:00,45.1,40.9,30.23,North,0,0.0,0.0,85,0.00,,,0.00,WUHU21623XXSP,2013-03-13 09:58:00,
2013-03-13 03:03:00,45.1,40.9,30.23,North,0,0.0,0.0,85,0.00,,,0.00,WUHU21623XXSP,2013-03-13 10:03:00,
2013-03-13 03:08:00,45.3,41.1,30.23,ESE,112,0.0,0.0,85,0.00,,,0.00,WUHU21623XXSP,2013-03-13 10:08:00,
2013-03-13 03:13:00,45.3,41.4,30.23,ESE,112,0.0,0.0,86,0.00,,,0.00,WUHU21623XXSP,2013-03-13 10:13:00,
2013-03-13 03:18:00,45.3,41.4,30.22,ESE,112,0.0,0.0,86,0.00,,,0.00,WUHU21623XXSP,2013-03-13 10:18:00,
2013-03-13 03:23:00,45.3,41.4,30.23,ESE,112,0.0,0.0,86,0.00,,,0.00,WUHU21623XXSP,2013-03-13 10:23:00,
2013-03-13 03:28:00,45.1,41.2,30.23,ESE,112,0.0,0.0,86,0.00,,,0.00,WUHU21623XXSP,2013-03-13 10:28:00,
2013-03-13 03:33:00,45.1,41.2,30.22,ESE,112,0.0,0.0,86,0.00,,,0.00,WUHU21623XXSP,2013-03-13 10:33:00,
2013-03-13 03:38:00,45.1,40.9,30.22,ESE,112,0.0,0.0,85,0.00,,,0.00,WUHU21623XXSP,2013-03-13 10:38:00,
2013-03-13 03:43:00,45.1,40.9,30.22,ESE,112,0.0,0.0,85,0.00,,,0.00,WUHU21623XXSP,2013-03-13 10:43:00,
2013-03-13 03:48:00,45.1,40.9,30.22,ESE,112,0.0,0.0,85,0.00,,,0.00,WUHU21623XXSP,2013-03-13 10:48:00,
2013-03-13 03:53:00,45.1,40.9,30.22,ESE,112,0.0,0.0,85,0.00,,,0.00,WUHU21623XXSP,2013-03-13 10:53:00,
2013-03-13 03:58:00,45.0,40.7,30.22,ESE,112,0.0,0.0,85,0.00,,,0.00,WUHU21623XXSP,2013-03-13 10:58:00,
2013-03-13 04:03:00,45.0,40.7,30.22,ESE,112,0.0,0.0,85,0.00,,,0.00,WUHU21623XXSP,2013-03-13 11:03:00,
2013-03-13 04:08:00,45.0,41.0,30.21,SE,135,0.0,0.0,86,0.00,,,0.00,WUHU21623XXSP,2013-03-13 11:08:00,
2013-03-13 04:13:00,45.0,41.0,30.21,SE,135,0.0,0.0,86,0.00,,,0.00,WUHU21623XXSP,2013-03-13 11:13:00,
2013-03-13 04:18:00,45.0,41.0,30.21,SE,135,0.0,0.0,86,0.00,,,0.00,WUHU21623XXSP,2013-03-13 11:18:00,
2013-03-13 04:23:00,45.0,41.0,30.21,ESE,112,0.0,0.0,86,0.00,,,0.00,WUHU21623XXSP,2013-03-13 11:23:00,
2013-03-13 04:28:00,45.0,41.0,30.22,ESE,112,0.0,0.0,86,0.00,,,0.00,WUHU21623XXSP,2013-03-13 11:28:00,
2013-03-13 04:33:00,45.0,41.0,30.22,ESE,112,0.0,0.0,86,0.00,,,0.00,WUHU21623XXSP,2013-03-13 11:33:00,
2013-03-13 04:38:00,45.0,41.0,30.21,ESE,112,0.0,0.0,86,0.00,,,0.00,WUHU21623XXSP,2013-03-13 11:38:00,
2013-03-13 04:43:00,45.0,41.0,30.22,SE,135,0.0,0.0,86,0.00,,,0.00,WUHU21623XXSP,2013-03-13 11:43:00,
2013-03-13 04:48:00,45.0,41.0,30.21,SE,135,0.0,0.0,86,0.00,,,0.00,WUHU21623XXSP,2013-03-13 11:48:00,
2013-03-13 04:53:00,45.0,41.0,30.22,SE,135,0.0,0.0,86,0.00,,,0.00,WUHU21623XXSP,2013-03-13 11:53:00,
2013-03-13 04:58:00,45.0,41.0,30.22,ESE,112,0.0,0.0,86,0.00,,,0.00,WUHU21623XXSP,2013-03-13 11:58:00,
2013-03-13 05:03:00,45.0,41.0,30.22,ESE,112,0.0,0.0,86,0.00,,,0.00,WUHU21623XXSP,2013-03-13 12:03:00,
2013-03-13 05:08:00,45.0,41.0,30.22,ESE,112,0.0,0.0,86,0.00,,,0.00,WUHU21623XXSP,2013-03-13 12:08:00,
2013-03-13 05:13:00,45.0,41.0,30.22,ESE,112,0.0,0.0,86,0.00,,,0.00,WUHU21623XXSP,2013-03-13 12:13:00,
2013-03-13 05:18:00,45.0,41.0,30.22,ESE,112,0.0,0.0,86,0.00,,,0.00,WUHU21623XXSP,2013-03-13 12:18:00,
2013-03-13 05:23:00,45.1,41.5,30.22,ESE,112,0.0,0.0,87,0.00,,,0.00,WUHU21623XXSP,2013-03-13 12:23:00,
2013-03-13 05:28:00,45.0,41.0,30.22,ESE,112,0.0,0.0,86,0.00,,,0.00,WUHU21623XXSP,2013-03-13 12:28:00,
2013-03-13 05:33:00,45.0,41.0,30.22,ESE,112,0.0,0.0,86,0.00,,,0.00,WUHU21623XXSP,2013-03-13 12:33:00,
2013-03-13 05:38:00,45.0,41.0,30.22,ESE,112,0.0,0.0,86,0.00,,,0.00,WUHU21623XXSP,2013-03-13 12:38:00,
2013-03-13 05:43:00,45.0,41.0,30.22,ESE,112,0.0,0.0,86,0.00,,,0.00,WUHU21623XXSP,2013-03-13 12:43:00,
2013-03-13 05:48:00,45.0,41.0,30.22,ESE,112,0.0,0.0,86,0.00,,,0.00,WUHU21623XXSP,2013-03-13 12:48:00,
2013-03-13 05:53:00,45.0,41.0,30.22,ESE,112,0.0,0.0,86,0.00,,,0.00,WUHU21623XXSP,2013-03-13 12:53:00,
2013-03-13 05:58:00,44.8,40.9,30.22,ESE,112,0.0,0.0,86,0.00,,,0.00,WUHU21623XXSP,2013-03-13 12:58:00,
2013-03-13 06:03:00,44.8,40.9,30.22,ESE,112,0.0,0.0,86,0.00,,,0.00,WUHU21623XXSP,2013-03-13 13:03:00,
2013-03-13 06:08:00,44.8,40.9,30.22,SE,135,0.0,0.0,86,0.00,,,0.00,WUHU21623XXSP,2013-03-13 13:08:00,
2013-03-13 06:13:00,44.8,40.9,30.22,SE,135,0.0,0.0,86,0.00,,,0.00,WUHU21623XXSP,2013-03-13 13:13:00,
2013-03-13 06:18:00,44.8,40.9,30.22,ESE,112,0.0,0.0,86,0.00,,,0.00,WUHU21623XXSP,2013-03-13 13:18:00,
2013-03-13 06:23:00,44.6,40.7,30.22,ESE,112,0.0,0.0,86,0.00,,,0.00,WUHU21623XXSP,2013-03-13 13:23:00,
2013-03-13 06:28:00,44.4,40.5,30.22,ESE,112,0.0,0.0,86,0.00,,,0.00,WUHU21623XXSP,2013-03-13 13:28:00,
2013-03-13 06:33:00,44.4,40.8,30.22,ESE,112,0.0,0.0,87,0.00,,,0.00,WUHU21623XXSP,2013-03-13 13:33:00,
2013-03-13 06:38:00,44.4,40.8,30.21,ESE,112,0.0,0.0,87,0.00,,,0.00,WUHU21623XXSP,2013-03-13 13:38:00,
2013-03-13 06:43:00,44.4,40.8,30.21,ESE,112,0.0,0.0,87,0.00,,,0.00,WUHU21623XXSP,2013-03-13 13:43:00,
2013-03-13 06:48:00,44.4,40.8,30.21,ESE,112,0.0,0.0,87,0.00,,,0.00,WUHU21623XXSP,2013-03-13 13:48:00,
2013-03-13 06:53:00,44.2,40.6,30.20,ESE,112,0.0,0.0,87,0.00,,,0.00,WUHU21623XXSP,2013-03-13 13:53:00,
2013-03-13 06:58:00,44.2,40.6,30.21,ESE,112,0.0,0.0,87,0.00,,,0.00,WUHU21623XXSP,2013-03-13 13:58:00,
2013-03-13 07:03:00,44.2,40.6,30.20,ESE,112,0.0,0.0,87,0.00,,,0.00,WUHU21623XXSP,2013-03-13 14:03:00,
2013-03-13 07:08:00,44.2,40.6,30.21,ESE,112,0.0,0.0,87,0.00,,,0.00,WUHU21623XXSP,2013-03-13 14:08:00,
2013-03-13 07:13:00,44.1,40.4,30.20,ESE,112,0.0,0.0,87,0.00,,,0.00,WUHU21623XXSP,2013-03-13 14:13:00,
2013-03-13 07:18:00,43.9,40.3,30.20,ESE,112,0.0,0.0,87,0.00,,,0.00,WUHU21623XXSP,2013-03-13 14:18:00,
2013-03-13 07:23:00,43.7,40.1,30.20,ESE,112,0.0,0.0,87,0.00,,,0.00,WUHU21623XXSP,2013-03-13 14:23:00,
2013-03-13 07:28:00,43.7,40.1,30.20,ESE,112,0.0,0.0,87,0.00,,,0.00,WUHU21623XXSP,2013-03-13 14:28:00,
2013-03-13 07:33:00,43.7,40.1,30.20,ESE,112,0.0,0.0,87,0.00,,,0.00,WUHU21623XXSP,2013-03-13 14:33:00,
2013-03-13 07:38:00,43.9,40.3,30.21,SE,135,0.0,0.0,87,0.00,,,0.00,WUHU21623XXSP,2013-03-13 14:38:00,
2013-03-13 07:43:00,44.2,40.6,30.21,SE,135,0.0,0.0,87,0.00,,,0.00,WUHU21623XXSP,2013-03-13 14:43:00,
2013-03-13 07:48:00,44.2,40.6,30.20,SE,135,0.0,0.0,87,0.00,,,0.00,WUHU21623XXSP,2013-03-13 14:48:00,
2013-03-13 07:53:00,44.4,40.8,30.21,SE,135,0.0,0.0,87,0.00,,,0.00,WUHU21623XXSP,2013-03-13 14:53:00,
2013-03-13 07:58:00,44.6,41.0,30.21,SE,135,0.0,0.0,87,0.00,,,0.00,WUHU21623XXSP,2013-03-13 14:58:00,
2013-03-13 08:03:00,44.8,41.2,30.21,ESE,112,0.0,0.0,87,0.00,,,0.00,WUHU21623XXSP,2013-03-13 15:03:00,
2013-03-13 08:08:00,45.0,41.3,30.21,ESE,112,0.0,0.0,87,0.00,,,0.00,WUHU21623XXSP,2013-03-13 15:08:00,
2013-03-13 08:13:00,45.3,41.7,30.21,SE,135,0.0,0.0,87,0.00,,,0.00,WUHU21623XXSP,2013-03-13 15:13:00,
2013-03-13 08:18:00,45.5,41.9,30.21,ESE,112,0.0,0.0,87,0.00,,,0.00,WUHU21623XXSP,2013-03-13 15:18:00,
2013-03-13 08:23:00,46.0,42.4,30.21,ESE,112,0.0,0.0,87,0.00,,,0.00,WUHU21623XXSP,2013-03-13 15:23:00,
2013-03-13 08:28:00,46.2,42.6,30.21,SE,135,0.0,0.0,87,0.00,,,0.00,WUHU21623XXSP,2013-03-13 15:28:00,
2013-03-13 08:33:00,46.6,42.9,30.21,SE,135,0.0,0.0,87,0.00,,,0.00,WUHU21623XXSP,2013-03-13 15:33:00,
2013-03-13 08:38:00,46.9,43.0,30.21,SE,135,0.0,0.0,86,0.00,,,0.00,WUHU21623XXSP,2013-03-13 15:38:00,
2013-03-13 08:43:00,47.1,43.2,30.21,SE,135,0.0,0.0,86,0.00,,,0.00,WUHU21623XXSP,2013-03-13 15:43:00,
2013-03-13 08:48:00,47.5,43.5,30.21,SE,135,0.0,0.0,86,0.00,,,0.00,WUHU21623XXSP,2013-03-13 15:48:00,
2013-03-13 08:53:00,47.8,43.5,30.21,SE,135,0.0,0.0,85,0.00,,,0.00,WUHU21623XXSP,2013-03-13 15:53:00,
2013-03-13 08:58:00,48.0,43.7,30.21,SE,135,0.0,0.0,85,0.00,,,0.00,WUHU21623XXSP,2013-03-13 15:58:00,
2013-03-13 09:03:00,48.2,43.9,30.21,SE,135,0.0,0.0,85,0.00,,,0.00,WUHU21623XXSP,2013-03-13 16:03:00,
2013-03-13 09:08:00,48.7,44.1,30.21,SE,135,0.0,0.0,84,0.00,,,0.00,WUHU21623XXSP,2013-03-13 16:08:00,
2013-03-13 09:13:00,49.1,44.4,30.21,SE,135,0.0,0.0,84,0.00,,,0.00,WUHU21623XXSP,2013-03-13 16:13:00,
2013-03-13 09:18:00,49.3,44.6,30.21,SE,135,0.0,0.0,84,0.00,,,0.00,WUHU21623XXSP,2013-03-13 16:18:00,
2013-03-13 09:23:00,50.4,44.8,30.21,SE,135,0.0,0.0,83,0.00,,,0.00,WUHU21623XXSP,2013-03-13 16:23:00,
2013-03-13 09:28:00,51.8,46.5,30.21,SE,135,0.0,0.0,82,0.00,,,0.00,WUHU21623XXSP,2013-03-13 16:28:00,
2013-03-13 09:33:00,53.1,47.1,30.21,SE,135,0.0,0.0,80,0.00,,,0.00,WUHU21623XXSP,2013-03-13 16:33:00,
2013-03-13 09:38:00,53.8,47.5,30.21,SE,135,0.0,0.0,79,0.00,,,0.00,WUHU21623XXSP,2013-03-13 16:38:00,
2013-03-13 09:43:00,53.2,46.6,30.21,SE,135,0.0,0.0,78,0.00,,,0.00,WUHU21623XXSP,2013-03-13 16:43:00,
2013-03-13 09:48:00,52.9,46.2,30.21,SE,135,0.0,0.0,78,0.00,,,0.00,WUHU21623XXSP,2013-03-13 16:48:00,
2013-03-13 09:53:00,53.2,46.4,30.21,SE,135,0.0,0.0,78,0.00,,,0.00,WUHU21623XXSP,2013-03-13 16:53:00,
2013-03-13 09:58:00,53.8,47.1,30.21,SE,135,0.0,0.0,78,0.00,,,0.00,WUHU21623XXSP,2013-03-13 16:58:00,
2013-03-13 10:03:00,54.3,47.2,30.20,SE,135,0.0,0.0,77,0.00,,,0.00,WUHU21623XXSP,2013-03-13 17:03:00,
2013-03-13 10:08:00,55.2,47.7,30.21,SE,135,0.0,0.0,76,0.00,,,0.00,WUHU21623XXSP,2013-03-13 17:08:00,
2013-03-13 10:13:00,55.6,47.7,30.21,SW,225,0.0,0.0,75,0.00,,,0.00,WUHU21623XXSP,2013-03-13 17:13:00,
2013-03-13 10:18:00,55.9,47.7,30.21,West,270,0.0,0.0,74,0.00,,,0.00,WUHU21623XXSP,2013-03-13 17:18:00,
2013-03-13 10:23:00,55.9,47.4,30.21,SW,225,0.0,0.0,73,0.00,,,0.00,WUHU21623XXSP,2013-03-13 17:23:00,
2013-03-13 10:28:00,56.5,47.9,30.22,SSW,202,0.0,0.0,73,0.00,,,0.00,WUHU21623XXSP,2013-03-13 17:28:00,
2013-03-13 10:33:00,57.0,48.0,30.22,West,270,0.0,0.0,72,0.00,,,0.00,WUHU21623XXSP,2013-03-13 17:33:00,
2013-03-13 10:38:00,56.8,47.5,30.22,West,270,0.0,0.0,71,0.00,,,0.00,WUHU21623XXSP,2013-03-13 17:38:00,
2013-03-13 10:43:00,56.5,46.8,30.22,South,180,0.0,0.0,70,0.00,,,0.00,WUHU21623XXSP,2013-03-13 17:43:00,
2013-03-13 10:48:00,55.9,45.9,30.22,SSE,157,0.0,0.0,69,0.00,,,0.00,WUHU21623XXSP,2013-03-13 17:48:00,
2013-03-13 10:53:00,54.3,45.1,30.22,South,180,0.0,0.0,71,0.00,,,0.00,WUHU21623XXSP,2013-03-13 17:53:00,
2013-03-13 10:58:00,54.3,45.5,30.22,South,180,0.0,0.0,72,0.00,,,0.00,WUHU21623XXSP,2013-03-13 17:58:00,
2013-03-13 11:03:00,54.5,45.3,30.22,South,180,0.0,0.0,71,0.00,,,0.00,WUHU21623XXSP,2013-03-13 18:03:00,
2013-03-13 11:08:00,54.9,45.7,30.21,SSW,202,0.0,0.0,71,0.00,,,0.00,WUHU21623XXSP,2013-03-13 18:08:00,
2013-03-13 11:13:00,55.2,45.7,30.21,SSW,202,0.0,0.0,70,0.00,,,0.00,WUHU21623XXSP,2013-03-13 18:13:00,
2013-03-13 11:18:00,55.8,46.2,30.21,SSW,202,0.0,0.0,70,0.00,,,0.00,WUHU21623XXSP,2013-03-13 18:18:00,
2013-03-13 11:23:00,56.7,46.6,30.21,SSW,202,0.0,0.0,69,0.00,,,0.00,WUHU21623XXSP,2013-03-13 18:23:00,
2013-03-13 11:28:00,56.5,45.6,30.21,SSE,157,0.0,0.0,67,0.00,,,0.00,WUHU21623XXSP,2013-03-13 18:28:00,
2013-03-13 11:33:00,56.3,45.9,30.20,SSW,202,0.0,0.0,68,0.00,,,0.00,WUHU21623XXSP,2013-03-13 18:33:00,
2013-03-13 11:38:00,57.0,46.1,30.20,South,180,0.0,0.0,67,0.00,,,0.00,WUHU21623XXSP,2013-03-13 18:38:00,
2013-03-13 11:43:00,57.7,46.8,30.21,South,180,0.0,0.0,67,0.00,,,0.00,WUHU21623XXSP,2013-03-13 18:43:00,
2013-03-13 11:48:00,58.1,46.3,30.21,SSE,157,0.0,0.0,65,0.00,,,0.00,WUHU21623XXSP,2013-03-13 18:48:00,
2013-03-13 11:53:00,57.6,45.8,30.21,SSE,157,0.0,0.0,65,0.00,,,0.00,WUHU21623XXSP,2013-03-13 18:53:00,
2013-03-13 11:58:00,57.0,45.3,30.21,SSE,157,0.0,0.0,65,0.00,,,0.00,WUHU21623XXSP,2013-03-13 18:58:00,
2013-03-13 12:03:00,57.4,45.7,30.21,South,180,0.0,0.0,65,0.00,,,0.00,WUHU21623XXSP,2013-03-13 19:03:00,
2013-03-13 12:08:00,57.0,44.9,30.22,South,180,0.0,0.0,64,0.00,,,0.00,WUHU21623XXSP,2013-03-13 19:08:00,
2013-03-13 12:13:00,56.1,44.1,30.22,South,180,0.0,0.0,64,0.00,,,0.00,WUHU21623XXSP,2013-03-13 19:13:00,
2013-03-13 12:18:00,55.6,44.4,30.22,South,180,0.0,0.0,66,0.00,,,0.00,WUHU21623XXSP,2013-03-13 19:18:00,
2013-03-13 12:23:00,55.2,44.0,30.22,SW,225,0.0,0.0,66,0.00,,,0.00,WUHU21623XXSP,2013-03-13 19:23:00,
2013-03-13 12:28:00,55.6,44.8,30.22,SW,225,0.0,0.0,67,0.00,,,0.00,WUHU21623XXSP,2013-03-13 19:28:00,
2013-03-13 12:33:00,55.9,44.9,30.22,SW,225,0.0,0.0,67,0.00,,,0.00,WUHU21623XXSP,2013-03-13 19:33:00,
2013-03-13 12:38:00,56.8,46.0,30.22,SSW,202,0.0,0.0,67,0.00,,,0.00,WUHU21623XXSP,2013-03-13 19:38:00,
2013-03-13 12:43:00,57.6,45.8,30.22,SSW,202,0.0,0.0,65,0.00,,,0.00,WUHU21623XXSP,2013-03-13 19:43:00,
2013-03-13 12:48:00,58.1,46.3,30.22,South,180,0.0,0.0,65,0.00,,,0.00,WUHU21623XXSP,2013-03-13 19:48:00,
2013-03-13 12:53:00,58.8,46.6,30.22,South,180,0.0,0.0,64,0.00,,,0.00,WUHU21623XXSP,2013-03-13 19:53:00,
2013-03-13 12:58:00,58.8,46.6,30.21,SSE,157,0.0,0.0,64,0.00,,,0.00,WUHU21623XXSP,2013-03-13 19:58:00,
2013-03-13 13:03:00,58.8,47.0,30.22,WSW,247,0.0,0.0,65,0.00,,,0.00,WUHU21623XXSP,2013-03-13 20:03:00,
2013-03-13 13:08:00,58.8,47.4,30.22,SW,225,0.0,0.0,66,0.00,,,0.00,WUHU21623XXSP,2013-03-13 20:08:00,
2013-03-13 13:13:00,58.6,47.0,30.22,SW,225,0.0,0.0,65,0.00,,,0.00,WUHU21623XXSP,2013-03-13 20:13:00,
2013-03-13 13:18:00,57.9,46.2,30.22,SW,225,0.0,0.0,65,0.00,,,0.00,WUHU21623XXSP,2013-03-13 20:18:00,
2013-03-13 13:23:00,57.9,46.6,30.22,West,270,0.0,0.0,66,0.00,,,0.00,WUHU21623XXSP,2013-03-13 20:23:00,
2013-03-13 13:28:00,57.7,46.4,30.22,West,270,0.0,0.0,66,0.00,,,0.00,WUHU21623XXSP,2013-03-13 20:28:00,
2013-03-13 13:33:00,57.6,46.6,30.21,West,270,0.0,0.0,67,0.00,,,0.00,WUHU21623XXSP,2013-03-13 20:33:00,
2013-03-13 13:38:00,58.1,46.3,30.20,West,270,0.0,0.0,65,0.00,,,0.00,WUHU21623XXSP,2013-03-13 20:38:00,
2013-03-13 13:43:00,58.8,47.4,30.20,West,270,0.0,0.0,66,0.00,,,0.00,WUHU21623XXSP,2013-03-13 20:43:00,
2013-03-13 13:48:00,60.4,48.7,30.20,West,270,0.0,0.0,65,0.00,,,0.00,WUHU21623XXSP,2013-03-13 20:48:00,
2013-03-13 13:53:00,63.1,49.5,30.20,West,270,0.0,0.0,62,0.00,,,0.00,WUHU21623XXSP,2013-03-13 20:53:00,
2013-03-13 13:58:00,64.0,49.9,30.20,West,270,0.0,0.0,60,0.00,,,0.00,WUHU21623XXSP,2013-03-13 20:58:00,
2013-03-13 14:03:00,64.6,49.9,30.20,NNE,22,0.0,0.0,59,0.00,,,0.00,WUHU21623XXSP,2013-03-13 21:03:00,
2013-03-13 14:08:00,65.3,50.1,30.20,NE,45,0.0,0.0,58,0.00,,,0.00,WUHU21623XXSP,2013-03-13 21:08:00,
2013-03-13 14:13:00,65.1,49.9,30.19,NE,45,0.0,0.0,58,0.00,,,0.00,WUHU21623XXSP,2013-03-13 21:13:00,
2013-03-13 14:18:00,64.2,48.6,30.19,ENE,67,0.0,0.0,57,0.00,,,0.00,WUHU21623XXSP,2013-03-13 21:18:00,
2013-03-13 14:23:00,63.0,47.9,30.19,SSW,202,0.0,0.0,58,0.00,,,0.00,WUHU21623XXSP,2013-03-13 21:23:00,
2013-03-13 14:28:00,63.3,48.7,30.19,SSW,202,0.0,0.0,59,0.00,,,0.00,WUHU21623XXSP,2013-03-13 21:28:00,
2013-03-13 14:33:00,66.7,51.5,30.18,SSW,202,0.0,0.0,58,0.00,,,0.00,WUHU21623XXSP,2013-03-13 21:33:00,
2013-03-13 14:38:00,72.0,53.3,30.17,SSW,202,0.0,0.0,52,0.00,,,0.00,WUHU21623XXSP,2013-03-13 21:38:00,
2013-03-13 14:43:00,73.0,53.3,30.17,SSW,202,0.0,0.0,50,0.00,,,0.00,WUHU21623XXSP,2013-03-13 21:43:00,
2013-03-13 14:48:00,71.6,51.4,30.17,SSW,202,0.0,0.0,49,0.00,,,0.00,WUHU21623XXSP,2013-03-13 21:48:00,
2013-03-13 14:53:00,70.0,50.6,30.17,SSW,202,0.0,0.0,50,0.00,,,0.00,WUHU21623XXSP,2013-03-13 21:53:00,
2013-03-13 14:58:00,69.1,50.2,30.17,SSW,202,0.0,0.0,50,0.00,,,0.00,WUHU21623XXSP,2013-03-13 21:58:00,
2013-03-13 15:03:00,66.9,48.3,30.17,SSW,202,0.0,0.0,51,0.00,,,0.00,WUHU21623XXSP,2013-03-13 22:03:00,
2013-03-13 15:08:00,66.4,48.1,30.17,SSW,202,0.0,0.0,52,0.00,,,0.00,WUHU21623XXSP,2013-03-13 22:08:00,
2013-03-13 15:13:00,65.5,46.9,30.17,SSW,202,0.0,0.0,51,0.00,,,0.00,WUHU21623XXSP,2013-03-13 22:13:00,
2013-03-13 15:18:00,64.9,47.3,30.17,SSW,202,0.0,0.0,54,0.00,,,0.00,WUHU21623XXSP,2013-03-13 22:18:00,
2013-03-13 15:23:00,65.1,48.0,30.17,SSW,202,0.0,0.0,54,0.00,,,0.00,WUHU21623XXSP,2013-03-13 22:23:00,
2013-03-13 15:28:00,65.7,48.0,30.16,SSW,202,0.0,0.0,53,0.00,,,0.00,WUHU21623XXSP,2013-03-13 22:28:00,
2013-03-13 15:33:00,64.9,47.3,30.16,SSE,157,0.0,0.0,53,0.00,,,0.00,WUHU21623XXSP,2013-03-13 22:33:00,
2013-03-13 15:38:00,65.5,47.9,30.16,SSE,157,0.0,0.0,53,0.00,,,0.00,WUHU21623XXSP,2013-03-13 22:38:00,
2013-03-13 15:43:00,66.4,49.2,30.16,West,270,0.0,0.0,54,0.00,,,0.00,WUHU21623XXSP,2013-03-13 22:43:00,
2013-03-13 15:48:00,67.8,49.5,30.16,WSW,247,0.0,0.0,52,0.00,,,0.00,WUHU21623XXSP,2013-03-13 22:48:00,
2013-03-13 15:53:00,68.9,50.0,30.15,WSW,247,0.0,0.0,51,0.00,,,0.00,WUHU21623XXSP,2013-03-13 22:53:00,
2013-03-13 15:58:00,68.2,49.4,30.15,SE,135,0.0,0.0,51,0.00,,,0.00,WUHU21623XXSP,2013-03-13 22:58:00,
2013-03-13 16:03:00,67.1,48.4,30.15,WSW,247,0.0,0.0,51,0.00,,,0.00,WUHU21623XXSP,2013-03-13 23:03:00,
2013-03-13 16:08:00,67.6,49.4,30.15,ENE,67,0.0,0.0,52,0.00,,,0.00,WUHU21623XXSP,2013-03-13 23:08:00,
2013-03-13 16:13:00,68.7,49.9,30.15,WSW,247,0.0,0.0,51,0.00,,,0.00,WUHU21623XXSP,2013-03-13 23:13:00,
2013-03-13 16:18:00,68.2,48.9,30.15,NW,315,0.0,0.0,50,0.00,,,0.00,WUHU21623XXSP,2013-03-13 23:18:00,
2013-03-13 16:23:00,67.6,48.4,30.15,WSW,247,0.0,0.0,50,0.00,,,0.00,WUHU21623XXSP,2013-03-13 23:23:00,
2013-03-13 16:28:00,66.6,47.9,30.15,SE,135,0.0,0.0,51,0.00,,,0.00,WUHU21623XXSP,2013-03-13 23:28:00,
2013-03-13 16:33:00,65.5,47.4,30.15,ENE,67,0.0,0.0,52,0.00,,,0.00,WUHU21623XXSP,2013-03-13 23:33:00,
2013-03-13 16:38:00,64.8,47.1,30.15,ENE,67,0.0,0.0,53,0.00,,,0.00,WUHU21623XXSP,2013-03-13 23:38:00,
2013-03-13 16:43:00,64.8,47.6,30.15,ENE,67,0.0,0.0,54,0.00,,,0.00,WUHU21623XXSP,2013-03-13 23:43:00,
2013-03-13 16:48:00,65.1,48.0,30.15,ENE,67,0.0,0.0,54,0.00,,,0.00,WUHU21623XXSP,2013-03-13 23:48:00,
2013-03-13 16:53:00,64.2,47.1,30.15,SE,135,0.0,0.0,54,0.00,,,0.00,WUHU21623XXSP,2013-03-13 23:53:00,
2013-03-13 16:58:00,64.2,47.6,30.15,SE,135,0.0,0.0,55,0.00,,,0.00,WUHU21623XXSP,2013-03-13 23:58:00,
2013-03-13 17:03:00,64.2,47.6,30.15,SE,135,0.0,0.0,55,0.00,,,0.00,WUHU21623XXSP,2013-03-14 00:03:00,
2013-03-13 17:08:00,63.1,46.6,30.14,East,90,0.0,0.0,55,0.00,,,0.00,WUHU21623XXSP,2013-03-14 00:08:00,
2013-03-13 17:13:00,62.4,46.5,30.14,ENE,67,0.0,0.0,56,0.00,,,0.00,WUHU21623XXSP,2013-03-14 00:13:00,
2013-03-13 17:18:00,62.4,46.9,30.14,NE,45,0.0,0.0,57,0.00,,,0.00,WUHU21623XXSP,2013-03-14 00:18:00,
2013-03-13 17:23:00,62.2,47.3,30.14,ESE,112,0.0,0.0,58,0.00,,,0.00,WUHU21623XXSP,2013-03-14 00:23:00,
2013-03-13 17:28:00,61.5,47.1,30.13,ENE,67,0.0,0.0,59,0.00,,,0.00,WUHU21623XXSP,2013-03-14 00:28:00,
2013-03-13 17:33:00,60.4,47.0,30.13,SE,135,0.0,0.0,61,0.00,,,0.00,WUHU21623XXSP,2013-03-14 00:33:00,
2013-03-13 17:38:00,59.9,46.9,30.13,SE,135,0.0,0.0,62,0.00,,,0.00,WUHU21623XXSP,2013-03-14 00:38:00,
2013-03-13 17:43:00,59.4,46.7,30.13,ESE,112,0.0,0.0,63,0.00,,,0.00,WUHU21623XXSP,2013-03-14 00:43:00,
2013-03-13 17:48:00,58.8,46.6,30.13,ESE,112,0.0,0.0,64,0.00,,,0.00,WUHU21623XXSP,2013-03-14 00:48:00,
2013-03-13 17:53:00,58.5,46.5,30.13,NE,45,0.0,0.0,64,0.00,,,0.00,WUHU21623XXSP,2013-03-14 00:53:00,
2013-03-13 17:58:00,58.1,46.3,30.13,ESE,112,0.0,0.0,65,0.00,,,0.00,WUHU21623XXSP,2013-03-14 00:58:00,
2013-03-13 18:03:00,57.9,46.2,30.13,NE,45,0.0,0.0,65,0.00,,,0.00,WUHU21623XXSP,2013-03-14 01:03:00,
2013-03-13 18:08:00,57.6,46.2,30.13,ENE,67,0.0,0.0,66,0.00,,,0.00,WUHU21623XXSP,2013-03-14 01:08:00,
2013-03-13 18:13:00,57.4,46.1,30.13,East,90,0.0,0.0,66,0.00,,,0.00,WUHU21623XXSP,2013-03-14 01:13:00,
2013-03-13 18:18:00,57.0,46.5,30.13,East,90,0.0,0.0,67,0.00,,,0.00,WUHU21623XXSP,2013-03-14 01:18:00,
2013-03-13 18:23:00,56.8,46.0,30.12,East,90,0.0,0.0,67,0.00,,,0.00,WUHU21623XXSP,2013-03-14 01:23:00,
2013-03-13 18:28:00,56.8,46.3,30.12,ENE,67,0.0,0.0,68,0.00,,,0.00,WUHU21623XXSP,2013-03-14 01:28:00,
2013-03-13 18:33:00,56.7,46.2,30.12,SE,135,0.0,0.0,68,0.00,,,0.00,WUHU21623XXSP,2013-03-14 01:33:00,
2013-03-13 18:38:00,56.5,46.0,30.12,ENE,67,0.0,0.0,68,0.00,,,0.00,WUHU21623XXSP,2013-03-14 01:38:00,
2013-03-13 18:43:00,56.3,46.3,30.12,East,90,0.0,0.0,69,0.00,,,0.00,WUHU21623XXSP,2013-03-14 01:43:00,
2013-03-13 18:48:00,55.9,46.3,30.12,East,90,0.0,0.0,70,0.00,,,0.00,WUHU21623XXSP,2013-03-14 01:48:00,
2013-03-13 18:53:00,55.6,46.0,30.13,East,90,0.0,0.0,70,0.00,,,0.00,WUHU21623XXSP,2013-03-14 01:53:00,
2013-03-13 18:58:00,55.2,45.7,30.13,East,90,0.0,0.0,70,0.00,,,0.00,WUHU21623XXSP,2013-03-14 01:58:00,
2013-03-13 19:03:00,55.0,45.8,30.14,East,90,0.0,0.0,71,0.00,,,0.00,WUHU21623XXSP,2013-03-14 02:03:00,
2013-03-13 19:08:00,54.7,45.5,30.13,East,90,0.0,0.0,71,0.00,,,0.00,WUHU21623XXSP,2013-03-14 02:08:00,
2013-03-13 19:13:00,54.3,45.5,30.13,East,90,0.0,0.0,72,0.00,,,0.00,WUHU21623XXSP,2013-03-14 02:13:00,
2013-03-13 19:18:00,54.1,45.3,30.12,East,90,0.0,0.0,72,0.00,,,0.00,WUHU21623XXSP,2013-03-14 02:18:00,
2013-03-13 19:23:00,54.0,45.1,30.13,East,90,0.0,0.0,73,0.00,,,0.00,WUHU21623XXSP,2013-03-14 02:23:00,
2013-03-13 19:28:00,53.8,45.3,30.13,East,90,0.0,0.0,73,0.00,,,0.00,WUHU21623XXSP,2013-03-14 02:28:00,
2013-03-13 19:33:00,53.2,45.2,30.13,East,90,0.0,0.0,74,0.00,,,0.00,WUHU21623XXSP,2013-03-14 02:33:00,
2013-03-13 19:38:00,52.9,45.2,30.13,East,90,0.0,0.0,75,0.00,,,0.00,WUHU21623XXSP,2013-03-14 02:38:00,
2013-03-13 19:43:00,52.5,44.8,30.13,East,90,0.0,0.0,75,0.00,,,0.00,WUHU21623XXSP,2013-03-14 02:43:00,
2013-03-13 19:48:00,52.2,44.8,30.12,East,90,0.0,0.0,76,0.00,,,0.00,WUHU21623XXSP,2013-03-14 02:48:00,
2013-03-13 19:53:00,52.0,44.7,30.12,East,90,0.0,0.0,76,0.00,,,0.00,WUHU21623XXSP,2013-03-14 02:53:00,
2013-03-13 19:58:00,52.0,45.0,30.12,East,90,0.0,0.0,77,0.00,,,0.00,WUHU21623XXSP,2013-03-14 02:58:00,
2013-03-13 20:03:00,51.6,44.7,30.12,East,90,0.0,0.0,77,0.00,,,0.00,WUHU21623XXSP,2013-03-14 03:03:00,
2013-03-13 20:08:00,51.6,45.0,30.12,East,90,0.0,0.0,78,0.00,,,0.00,WUHU21623XXSP,2013-03-14 03:08:00,
2013-03-13 20:13:00,51.6,45.0,30.12,East,90,0.0,0.0,78,0.00,,,0.00,WUHU21623XXSP,2013-03-14 03:13:00,
2013-03-13 20:18:00,51.3,45.0,30.12,East,90,0.0,0.0,79,0.00,,,0.00,WUHU21623XXSP,2013-03-14 03:18:00,
2013-03-13 20:23:00,50.9,44.6,30.12,East,90,0.0,0.0,79,0.00,,,0.00,WUHU21623XXSP,2013-03-14 03:23:00,
2013-03-13 20:28:00,50.9,44.6,30.12,East,90,0.0,0.0,79,0.00,,,0.00,WUHU21623XXSP,2013-03-14 03:28:00,
2013-03-13 20:33:00,50.7,44.8,30.13,East,90,0.0,0.0,80,0.00,,,0.00,WUHU21623XXSP,2013-03-14 03:33:00,
2013-03-13 20:38:00,50.5,44.8,30.12,East,90,0.0,0.0,80,0.00,,,0.00,WUHU21623XXSP,2013-03-14 03:38:00,
2013-03-13 20:43:00,50.5,44.6,30.12,East,90,0.0,0.0,81,0.00,,,0.00,WUHU21623XXSP,2013-03-14 03:43:00,
2013-03-13 20:48:00,50.2,44.5,30.12,East,90,0.0,0.0,81,0.00,,,0.00,WUHU21623XXSP,2013-03-14 03:48:00,
2013-03-13 20:53:00,50.2,44.9,30.12,East,90,0.0,0.0,82,0.00,,,0.00,WUHU21623XXSP,2013-03-14 03:53:00,
2013-03-13 20:58:00,50.2,44.9,30.12,East,90,0.0,0.0,82,0.00,,,0.00,WUHU21623XXSP,2013-03-14 03:58:00,
2013-03-13 21:00:00,49.8,44.9,30.12,East,90,0.0,0.0,82,0.00,,,0.00,WUHU21623XXSP,2013-03-14 04:00:00,
2013-03-13 21:05:00,49.8,44.5,30.12,East,90,0.0,0.0,82,0.00,,,0.00,WUHU21623XXSP,2013-03-14 04:05:00,
2013-03-13 21:10:00,49.6,44.3,30.12,East,90,0.0,0.0,83,0.00,,,0.00,WUHU21623XXSP,2013-03-14 04:10:00,
2013-03-13 21:15:00,49.6,44.6,30.12,East,90,0.0,0.0,83,0.00,,,0.00,WUHU21623XXSP,2013-03-14 04:15:00,
2013-03-13 21:20:00,49.6,44.6,30.12,East,90,0.0,0.0,83,0.00,,,0.00,WUHU21623XXSP,2013-03-14 04:20:00,
2013-03-13 21:25:00,49.3,44.3,30.12,East,90,0.0,0.0,83,0.00,,,0.00,WUHU21623XXSP,2013-03-14 04:25:00,
2013-03-13 21:30:00,49.1,44.3,30.12,East,90,0.0,0.0,83,0.00,,,0.00,WUHU21623XXSP,2013-03-14 04:30:00,
2013-03-13 21:35:00,49.1,44.1,30.12,East,90,0.0,0.0,83,0.00,,,0.00,WUHU21623XXSP,2013-03-14 04:35:00,
2013-03-13 21:40:00,48.9,44.2,30.12,East,90,0.0,0.0,84,0.00,,,0.00,WUHU21623XXSP,2013-03-14 04:40:00,
2013-03-13 21:45:00,48.9,44.2,30.12,East,90,0.0,0.0,84,0.00,,,0.00,WUHU21623XXSP,2013-03-14 04:45:00,
2013-03-13 21:50:00,48.9,44.2,30.12,East,90,0.0,0.0,84,0.00,,,0.00,WUHU21623XXSP,2013-03-14 04:50:00,
2013-03-13 21:55:00,48.7,44.1,30.12,East,90,0.0,0.0,84,0.00,,,0.00,WUHU21623XXSP,2013-03-14 04:55:00,
2013-03-13 22:00:00,48.6,43.9,30.12,East,90,0.0,0.0,84,0.00,,,0.00,WUHU21623XXSP,2013-03-14 05:00:00,
2013-03-13 22:05:00,48.4,43.7,30.11,East,90,0.0,0.0,84,0.00,,,0.00,WUHU21623XXSP,2013-03-14 05:05:00,
2013-03-13 22:10:00,48.0,43.4,30.11,East,90,0.0,0.0,84,0.00,,,0.00,WUHU21623XXSP,2013-03-14 05:10:00,
2013-03-13 22:15:00,48.0,43.4,30.11,East,90,0.0,0.0,84,0.00,,,0.00,WUHU21623XXSP,2013-03-14 05:15:00,
2013-03-13 22:20:00,48.0,43.4,30.12,East,90,0.0,0.0,84,0.00,,,0.00,WUHU21623XXSP,2013-03-14 05:20:00,
2013-03-13 22:25:00,48.0,43.4,30.11,East,90,0.0,0.0,84,0.00,,,0.00,WUHU21623XXSP,2013-03-14 05:25:00,
2013-03-13 22:30:00,48.0,43.4,30.12,East,90,0.0,0.0,84,0.00,,,0.00,WUHU21623XXSP,2013-03-14 05:30:00,
2013-03-13 22:35:00,47.8,43.2,30.11,East,90,0.0,0.0,84,0.00,,,0.00,WUHU21623XXSP,2013-03-14 05:35:00,
2013-03-13 22:40:00,47.8,43.2,30.11,East,90,0.0,0.0,84,0.00,,,0.00,WUHU21623XXSP,2013-03-14 05:40:00,
2013-03-13 22:45:00,47.8,43.2,30.12,East,90,0.0,0.0,84,0.00,,,0.00,WUHU21623XXSP,2013-03-14 05:45:00,
2013-03-13 22:50:00,47.7,43.4,30.11,East,90,0.0,0.0,85,0.00,,,0.00,WUHU21623XXSP,2013-03-14 05:50:00,
2013-03-13 22:55:00,47.8,43.5,30.11,East,90,0.0,0.0,85,0.00,,,0.00,WUHU21623XXSP,2013-03-14 05:55:00,
2013-03-13 23:00:00,47.8,43.5,30.11,East,90,0.0,0.0,85,0.00,,,0.00,WUHU21623XXSP,2013-03-14 06:00:00,
2013-03-13 23:05:00,47.8,43.5,30.11,East,90,0.0,0.0,85,0.00,,,0.00,WUHU21623XXSP,2013-03-14 06:05:00,
2013-03-13 23:10:00,47.8,43.5,30.11,East,90,0.0,0.0,85,0.00,,,0.00,WUHU21623XXSP,2013-03-14 06:10:00,
2013-03-13 23:15:00,47.8,43.5,30.11,East,90,0.0,0.0,85,0.00,,,0.00,WUHU21623XXSP,2013-03-14 06:15:00,
2013-03-13 23:20:00,47.8,43.5,30.12,East,90,0.0,0.0,85,0.00,,,0.00,WUHU21623XXSP,2013-03-14 06:20:00,
2013-03-13 23:25:00,47.7,43.4,30.12,East,90,0.0,0.0,85,0.00,,,0.00,WUHU21623XXSP,2013-03-14 06:25:00,
2013-03-13 23:30:00,47.7,43.4,30.12,East,90,0.0,0.0,85,0.00,,,0.00,WUHU21623XXSP,2013-03-14 06:30:00,
2013-03-13 23:35:00,47.7,43.7,30.12,East,90,0.0,0.0,86,0.00,,,0.00,WUHU21623XXSP,2013-03-14 06:35:00,
2013-03-13 23:40:00,47.5,43.5,30.11,East,90,0.0,0.0,85,0.00,,,0.00,WUHU21623XXSP,2013-03-14 06:40:00,
2013-03-13 23:45:00,47.5,43.2,30.11,East,90,0.0,0.0,85,0.00,,,0.00,WUHU21623XXSP,2013-03-14 06:45:00,
2013-03-13 23:50:00,47.3,43.0,30.11,East,90,0.0,0.0,85,0.00,,,0.00,WUHU21623XXSP,2013-03-14 06:50:00,
2013-03-13 23:55:00,47.3,43.0,30.12,East,90,0.0,0.0,85,0.00,,,0.00,WUHU21623XXSP,2013-03-14 06:55:00,